Regional Weather Roundup
Issued by NWS Little Rock, AR

Home | Current Version | Previous Version | Graphics & Text | Print | Product List | Glossary On
Versions: 1 2 3 4 5 6 7 8 9 10 11 12 13 14 15 16 17 18 19 20 21 22 23 24 25 26 27 28 29 30 31 32 33 34 35 36 37 38 39 40 41 42 43 44 45 46 47 48 49
000
ASUS44 KLZK 302205
RWRLZK

WEATHER ROUNDUP FOR ARKANSAS
NATIONAL WEATHER SERVICE LITTLE ROCK AR
500 PM CDT THU JUL 30 2015

NOTE: "FAIR" INDICATES FEW OR NO CLOUDS BELOW 12,000 FEET WITH NO
SIGNIFICANT WEATHER AND/OR OBSTRUCTIONS TO VISIBILITY.

ARZ001-003-010-029-302300-
NORTHWEST ARKANSAS

CITY           SKY/WX    TMP DP  RH WIND       PRES   REMARKS
FAYETTEVILLE   CLOUDY    84  71  65 NE5       30.14R HX  89
FORT SMITH     MOSUNNY   92  69  47 N10       30.08R HX  97
HARRISON       SUNNY     83  61  47 NE7       30.16F
BENTONVILLE    CLOUDY    84  63  48 E9        30.16F HX  85
ROGERS         PTSUNNY   83  66  56 E6        30.16S HX  85
SILOAM SPGS    CLOUDY    82  66  57 E5        30.12F HX  85
HIGHFILL       CLOUDY    84  67  56 E8        30.14F HX  86
SPRINGDALE     PTSUNNY   84  68  58 NE8       30.17R HX  87
$$

ARZ004-005-016-302300-
NORTH CENTRAL ARKANSAS

CITY           SKY/WX    TMP DP  RH WIND       PRES   REMARKS
BATESVILLE     SUNNY     88  63  42 NE8       30.10S HX  88
FLIPPIN        SUNNY     88  57  35 E3        30.12F HX  86
MTN HOME       SUNNY     86  61  42 NE6       30.13F HX  86
$$

ARZ040-041-302300-
WEST CENTRAL ARKANSAS

CITY           SKY/WX    TMP DP  RH WIND       PRES   REMARKS
MENA           CLOUDY    77  73  88 E8        30.15S THUNDER
MOUNT IDA      RAIN      76  71  85 NW7       30.10R
$$

ARZ009-017-025-026-028-302300-
NORTHEAST ARKANSAS

CITY           SKY/WX    TMP DP  RH WIND       PRES   REMARKS
JONESBORO      SUNNY     86  63  45 N9        30.07F HX  87
NEWPORT        SUNNY     86  68  54 N10       30.09F HX  89
WALNUT RIDGE   SUNNY     88  59  37 NE10      30.09S HX  87
BLYTHEVILLE    SUNNY     87  66  49 NE13      30.07F HX  89
$$

ARZ022-023-033-042-044-302300-
CENTRAL ARKANSAS

CITY           SKY/WX    TMP DP  RH WIND       PRES   REMARKS
LITTLE ROCK    MOSUNNY   92  65  40 E10       30.06S HX  94
N LITTLE ROCK  MOSUNNY   93  62  34 N14       30.06S HX  93
JACKSONVILLE   SUNNY     93  59  31 NE9       30.07R HX  92
SEARCY         SUNNY     89  63  41 N14       30.09S HX  90
HOT SPRINGS    PTSUNNY   94  69  44 NE9       30.06R HX  99
RUSSELLVILLE   SUNNY     92  67  43 NE8       30.07F HX  95
CLINTON        LGT RAIN  90  66  45 CALM      30.12R HX  92
$$

ARZ036-302300-
EAST ARKANSAS

CITY           SKY/WX    TMP DP  RH WIND       PRES   REMARKS
WEST MEMPHIS   SUNNY     88  64  44 N14       30.04F HX  89
$$

ARZ050-053-066-070-073-302300-
SOUTHWEST ARKANSAS

CITY           SKY/WX    TMP DP  RH WIND       PRES   REMARKS
ARKADELPHIA    FAIR      93  76  57 VRB3      30.04S HX 105
CAMDEN         SUNNY     95  73  49 N9        30.01F HX 105
TEXARKANA      PTSUNNY   81  75  82 N13G22    30.03F HX  87
EL DORADO      MOSUNNY   96  74  48 NE10      30.01S HX 107
DE QUEEN       CLOUDY    77  74  90 N6        30.06R
$$

ARZ056-057-069-302300-
SOUTHEAST ARKANSAS

CITY           SKY/WX    TMP DP  RH WIND       PRES   REMARKS
PINE BLUFF     SUNNY     91  65  41 NE14      30.05S HX  93
STUTTGART      SUNNY     90  64  43 N13       30.06S HX  91
MONTICELLO     SUNNY     93  73  52 VRB7G16   30.02S HX 102

$$




USA.gov is the U.S. government's official web portal to all federal, state and local government web resources and services.